DW8785 Weather Reports


time (UTC)temp
C
wind
direction
speed
KPH
gust
KPH
rain 1hr
cm
rain 24hr
cm
rain mn
cm
humidity
%
barometer
mb
20260504234532 11 284 29.0 0.0 0.00 0.00 0.00 68 1012.0
20260504233028 11 284 20.9 0.0 0.00 0.00 0.00 67 1012.3
20260504231522 11 359 19.3 0.0 0.00 0.00 0.00 70 1012.5
20260504230018 11 357 22.5 0.0 0.00 0.00 0.00 72 1012.7
20260504224513 11 272 22.5 0.0 0.00 0.00 0.00 74 1012.7
20260504223009 11 357 22.5 0.0 0.00 0.00 0.00 75 1012.8
20260504221504 11 359 25.7 0.0 0.00 0.00 0.00 75 1012.8
20260504220106 11 356 24.1 0.0 0.00 0.00 0.00 75 1013.1
20260504214604 11 0 19.3 0.0 0.00 0.00 0.00 74 1013.4
20260504213054 11 0 20.9 0.0 0.00 0.00 0.00 73 1013.5
20260504211546 11 196 17.7 0.0 0.00 0.00 0.00 72 1013.7
20260504210055 12 359 24.1 0.0 0.00 0.00 0.00 69 1013.7
20260504204552 12 357 25.7 0.0 0.00 0.00 0.00 70 1013.5
20260504203035 12 280 20.9 0.0 0.00 0.00 0.00 70 1013.7
20260504201528 12 357 17.7 0.0 0.00 0.00 0.00 69 1013.8
20260504200025 12 359 20.9 0.0 0.00 0.00 0.00 68 1013.5
20260504194521 13 292 25.7 0.0 0.00 0.00 0.00 69 1013.3
20260504193016 13 359 24.1 0.0 0.00 0.00 0.00 68 1013.2
20260504191511 13 281 20.9 0.0 0.00 0.00 0.00 65 1013.2
20260504190008 13 186 22.5 0.0 0.00 0.00 0.00 64 1013.1
20260504184503 14 359 22.5 0.0 0.00 0.00 0.00 63 1013.1
20260504183104 14 357 19.3 0.0 0.00 0.00 0.00 63 1013.1
20260504181555 15 359 20.9 0.0 0.00 0.00 0.00 63 1013.2
20260504180105 15 203 19.3 0.0 0.00 0.00 0.00 62 1013.2
20260504174546 15 359 19.3 0.0 0.00 0.00 0.00 60 1013.1
20260504173049 15 359 20.9 0.0 0.00 0.00 0.00 60 1012.9
20260504171538 15 357 16.1 0.0 0.00 0.00 0.00 58 1013.0
20260504081600 15 191 25.7 0.0 0.00 0.00 0.00 48 1015.3
20260504050006 12 195 24.1 0.0 0.00 0.00 0.00 48 1013.8
20260504044559 12 357 24.1 0.0 0.00 0.00 0.00 50 1013.9
20260504043059 12 188 20.9 0.0 0.00 0.00 0.00 50 1013.8
20260504041550 11 188 19.3 0.0 0.00 0.00 0.00 50 1013.8
20260504040048 12 185 19.3 0.0 0.00 0.00 0.00 47 1013.7
20260504034547 12 192 19.3 0.0 0.00 0.00 0.00 48 1013.6
20260504033037 12 359 20.9 0.0 0.00 0.00 0.00 47 1013.7
20260504031534 12 359 16.1 0.0 0.00 0.00 0.00 50 1013.7
20260504030034 12 198 16.1 0.0 0.00 0.00 0.00 50 1013.5
20260504024522 12 359 16.1 0.0 0.00 0.00 0.00 50 1013.6
20260504023018 12 359 17.7 0.0 0.00 0.00 0.00 50 1013.7
20260504021515 12 359 17.7 0.0 0.00 0.00 0.00 51 1013.7
20260504020011 12 359 17.7 0.0 0.00 0.00 0.00 52 1013.7
20260504014505 12 359 17.7 0.0 0.00 0.00 0.00 52 1013.5
20260504013001 12 359 20.9 0.0 0.00 0.00 0.00 51 1013.5
20260504011558 12 359 22.5 0.0 0.00 0.00 0.00 50 1013.6
20260504010055 13 359 22.5 0.0 0.00 0.00 0.00 50 1013.5
20260504004550 13 275 22.5 0.0 0.00 0.00 0.00 49 1013.6
20260504003044 13 359 20.9 0.0 0.00 0.00 0.00 49 1013.5
20260504001543 13 272 24.1 0.0 0.00 0.00 0.00 50 1013.7
20260504000035 12 282 24.1 0.0 0.00 0.00 0.00 51 1013.8